When you browse on this site, cookies collect data to enhance your experience and personalize the content and advertising you see.
Visit our Privacy Policy to learn more. By continuing to use the site, you agree to this use of cookies and data.
  • In Hungary
  • List of Countries
  • For 7 days
  • Water Temperature
  • Weather Map
  • News
  • Weather Widgets
  • user-avatar
    Login

    Hourly Weather Vladimirovka

    Today, 28 January, Tuesday

    Time Temperature Precipitation Wind Pressure Humidity
    00:00 -20°C° 0 mm 1 mps 716 mmHg 71%
    01:00 -20°C° 0 mm 1 mps 717 mmHg 68%
    02:00 -19°C° 0 mm 1 mps 717 mmHg 68%
    03:00 -19°C° 0 mm 1 mps 717 mmHg 68%
    04:00 -19°C° 0 mm 1 mps 717 mmHg 71%
    05:00 -18°C° 0 mm 1 mps 717 mmHg 70%
    06:00 -18°C° 0 mm 1 mps 717 mmHg 69%
    07:00 -17°C° 0 mm 1 mps 717 mmHg 68%
    08:00 -16°C° 0 mm 1 mps 717 mmHg 70%
    09:00 -15°C° 0 mm 1 mps 718 mmHg 71%
    10:00 -13°C° 0 mm 1 mps 718 mmHg 76%
    11:00 -12°C° 0 mm 1 mps 718 mmHg 75%
    12:00 -11°C° 0 mm 1 mps 718 mmHg 73%
    13:00 -10°C° 0 mm 1 mps 718 mmHg 71%
    14:00 -10°C° 0 mm 1 mps 718 mmHg 76%
    15:00 -11°C° 0 mm 1 mps 718 mmHg 81%
    16:00 -12°C° 0 mm 1 mps 718 mmHg 86%
    17:00 -13°C° 0 mm 1 mps 718 mmHg 88%
    18:00 -15°C° 0 mm 1 mps 718 mmHg 89%
    19:00 -16°C° 0 mm 1 mps 718 mmHg 90%
    20:00 -17°C° 0 mm 1 mps 718 mmHg 89%
    21:00 -19°C° 0 mm 2 mps 718 mmHg 88%
    22:00 -19°C° 0 mm 2 mps 718 mmHg 87%
    23:00 -20°C° 0 mm 2 mps 718 mmHg 86%

    Tomorrow, 29 January, Wednesday

    Time Temperature Precipitation Wind Pressure Humidity
    00:00 -20°C° 0 mm 2 mps 718 mmHg 84%
    01:00 -18°C° 0 mm 1 mps 718 mmHg 83%
    02:00 -18°C° 0 mm 1 mps 718 mmHg 82%
    03:00 -19°C° 0 mm 1 mps 718 mmHg 80%
    04:00 -19°C° 0 mm 1 mps 718 mmHg 79%
    05:00 -19°C° 0 mm 1 mps 718 mmHg 79%
    06:00 -21°C° 0 mm 2 mps 718 mmHg 79%
    07:00 -21°C° 0 mm 2 mps 718 mmHg 79%
    08:00 -18°C° 0 mm 1 mps 718 mmHg 80%
    09:00 -17°C° 0 mm 1 mps 718 mmHg 82%
    10:00 -16°C° 0 mm 1 mps 718 mmHg 84%
    11:00 -15°C° 0 mm 1 mps 718 mmHg 83%
    12:00 -13°C° 0 mm 1 mps 718 mmHg 82%
    13:00 -12°C° 0 mm 1 mps 718 mmHg 82%
    14:00 -13°C° 0 mm 1 mps 718 mmHg 85%
    15:00 -13°C° 0 mm 1 mps 718 mmHg 88%
    16:00 -14°C° 0 mm 1 mps 717 mmHg 91%
    17:00 -15°C° 0 mm 1 mps 717 mmHg 93%
    18:00 -19°C° 0 mm 2 mps 717 mmHg 94%
    19:00 -20°C° 0 mm 2 mps 717 mmHg 96%
    20:00 -20°C° 0 mm 2 mps 717 mmHg 95%
    21:00 -20°C° 0 mm 2 mps 717 mmHg 95%
    22:00 -20°C° 0 mm 2 mps 717 mmHg 94%
    23:00 -20°C° 0 mm 2 mps 716 mmHg 94%

    Day after tomorrow, 30 January, Thursday

    Time Temperature Precipitation Wind Pressure Humidity
    00:00 -20°C° 0 mm 2 mps 716 mmHg 93%
    01:00 -20°C° 0 mm 2 mps 716 mmHg 93%
    02:00 -22°C° 0 mm 3 mps 716 mmHg 93%
    03:00 -22°C° 0 mm 3 mps 716 mmHg 93%
    04:00 -22°C° 0 mm 3 mps 716 mmHg 93%
    05:00 -23°C° 0 mm 4 mps 716 mmHg 92%
    06:00 -22°C° 0 mm 4 mps 715 mmHg 91%
    07:00 -22°C° 0 mm 5 mps 715 mmHg 91%
    08:00 -22°C° 0 mm 5 mps 715 mmHg 90%
    09:00 -21°C° 0 mm 5 mps 715 mmHg 89%
    10:00 -22°C° 0 mm 6 mps 715 mmHg 88%
    11:00 -21°C° 0 mm 6 mps 715 mmHg 87%
    12:00 -20°C° 0 mm 6 mps 715 mmHg 86%
    13:00 -20°C° 0 mm 6 mps 715 mmHg 85%
    14:00 -20°C° 0 mm 6 mps 714 mmHg 85%
    15:00 -20°C° 0 mm 6 mps 714 mmHg 85%
    16:00 -20°C° 0 mm 6 mps 714 mmHg 84%
    17:00 -21°C° 0 mm 6 mps 714 mmHg 83%
    18:00 -22°C° 0 mm 6 mps 714 mmHg 82%
    19:00 -22°C° 0 mm 6 mps 714 mmHg 81%
    20:00 -22°C° 0 mm 6 mps 714 mmHg 81%
    21:00 -23°C° 0 mm 6 mps 713 mmHg 81%
    22:00 -23°C° 0 mm 6 mps 713 mmHg 81%
    23:00 -23°C° 0 mm 6 mps 713 mmHg 80%

    31 January, Friday

    Time Temperature Precipitation Wind Pressure Humidity
    00:00 -22°C° 0 mm 5 mps 713 mmHg 79%
    01:00 -22°C° 0 mm 5 mps 713 mmHg 78%
    02:00 -22°C° 0 mm 5 mps 712 mmHg 78%
    03:00 -22°C° 0 mm 5 mps 712 mmHg 77%
    04:00 -22°C° 0 mm 5 mps 712 mmHg 76%
    05:00 -24°C° 0 mm 5 mps 712 mmHg 77%
    06:00 -24°C° 0 mm 5 mps 712 mmHg 78%
    07:00 -24°C° 0 mm 5 mps 712 mmHg 79%
    08:00 -24°C° 0 mm 5 mps 712 mmHg 81%
    09:00 -22°C° 0 mm 5 mps 712 mmHg 83%
    10:00 -21°C° 0 mm 5 mps 712 mmHg 84%
    11:00 -20°C° 0 mm 5 mps 712 mmHg 84%
    12:00 -19°C° 0 mm 5 mps 712 mmHg 83%
    13:00 -18°C° 0 mm 5 mps 712 mmHg 82%
    14:00 -18°C° 0 mm 5 mps 712 mmHg 81%
    15:00 -19°C° 0 mm 5 mps 712 mmHg 81%
    16:00 -19°C° 0 mm 5 mps 712 mmHg 81%
    17:00 -20°C° 0 mm 5 mps 712 mmHg 83%
    18:00 -22°C° 0 mm 5 mps 712 mmHg 85%
    19:00 -23°C° 0 mm 4 mps 712 mmHg 87%
    20:00 -23°C° 0 mm 4 mps 712 mmHg 86%
    21:00 -23°C° 0 mm 4 mps 712 mmHg 86%
    22:00 -23°C° 0 mm 4 mps 712 mmHg 85%
    23:00 -24°C° 0 mm 4 mps 712 mmHg 85%

    1 February, Saturday

    Time Temperature Precipitation Wind Pressure Humidity
    00:00 -24°C° 0 mm 4 mps 712 mmHg 84%
    01:00 -23°C° 0 mm 3 mps 712 mmHg 83%
    02:00 -23°C° 0 mm 3 mps 712 mmHg 82%
    03:00 -23°C° 0 mm 3 mps 712 mmHg 81%
    04:00 -23°C° 0 mm 3 mps 712 mmHg 80%
    05:00 -23°C° 0 mm 3 mps 712 mmHg 79%
    06:00 -23°C° 0 mm 3 mps 712 mmHg 78%
    07:00 -23°C° 0 mm 2 mps 712 mmHg 78%
    08:00 -20°C° 0 mm 2 mps 712 mmHg 77%
    09:00 -19°C° 0 mm 2 mps 713 mmHg 76%
    10:00 -18°C° 0 mm 2 mps 713 mmHg 76%
    11:00 -16°C° 0 mm 2 mps 713 mmHg 75%
    12:00 -15°C° 0 mm 2 mps 713 mmHg 74%
    13:00 -14°C° 0 mm 2 mps 713 mmHg 74%
    14:00 -14°C° 0 mm 2 mps 713 mmHg 77%
    15:00 -15°C° 0 mm 2 mps 713 mmHg 80%
    16:00 -13°C° 0 mm 1 mps 712 mmHg 83%
    17:00 -15°C° 0 mm 1 mps 712 mmHg 85%
    18:00 -17°C° 0 mm 1 mps 712 mmHg 88%
    19:00 -19°C° 0 mm 1 mps 712 mmHg 90%
    20:00 -19°C° 0 mm 1 mps 712 mmHg 89%
    21:00 -19°C° 0 mm 1 mps 712 mmHg 89%
    22:00 -19°C° 0 mm 1 mps 711 mmHg 88%
    23:00 -19°C° 0 mm 1 mps 711 mmHg 88%

    2 February, Sunday

    Time Temperature Precipitation Wind Pressure Humidity
    00:00 -19°C° 0 mm 0 mps 711 mmHg 89%
    01:00 -19°C° 0 mm 0 mps 711 mmHg 89%
    02:00 -19°C° 0 mm 0 mps 711 mmHg 88%
    03:00 -19°C° 0 mm 0 mps 711 mmHg 87%
    04:00 -19°C° 0 mm 0 mps 710 mmHg 86%
    05:00 -19°C° 0 mm 0 mps 710 mmHg 85%
    06:00 -19°C° 0 mm 0 mps 710 mmHg 84%
    07:00 -19°C° 0 mm 0 mps 710 mmHg 82%
    08:00 -18°C° 0 mm 0 mps 710 mmHg 84%
    09:00 -17°C° 0 mm 0 mps 710 mmHg 85%
    10:00 -16°C° 0 mm 0 mps 711 mmHg 86%
    11:00 -15°C° 0 mm 1 mps 710 mmHg 85%
    12:00 -14°C° 0 mm 1 mps 710 mmHg 85%
    13:00 -14°C° 0 mm 1 mps 710 mmHg 84%
    14:00 -14°C° 0 mm 1 mps 710 mmHg 86%
    15:00 -14°C° 0 mm 1 mps 709 mmHg 88%
    16:00 -14°C° 0 mm 1 mps 709 mmHg 90%
    17:00 -15°C° 0 mm 1 mps 709 mmHg 92%
    18:00 -16°C° 0 mm 1 mps 709 mmHg 94%
    19:00 -17°C° 0 mm 0 mps 709 mmHg 96%
    20:00 -17°C° 0 mm 1 mps 709 mmHg 96%
    21:00 -17°C° 0 mm 1 mps 709 mmHg 95%
    22:00 -17°C° 0 mm 1 mps 709 mmHg 95%
    23:00 -18°C° 0 mm 1 mps 709 mmHg 95%
    Show more